Regional Weather Roundup
Issued by NWS

Home | Current Version | Previous Version | Text Only | Print | Product List | Glossary Off
Versions: 1 2 3 4 5 6 7 8 9 10 11 12 13 14 15 16 17 18 19 20 21 22 23 24 25 26 27 28 29 30 31 32 33 34 35 36 37 38 39 40 41 42 43 44 45 46 47 48 49 50

000
ASUS45 KPSR 290710
RWRAZ

ARIZONA REGIONAL HOURLY WEATHER ROUNDUP
NATIONAL WEATHER SERVICE PHOENIX AZ
1200 AM MST THU JAN 29 2015

NOTE: FAIR INDICATES FEW OR NO CLOUDS BELOW 12,000 FEET WITH NO
SIGNIFICANT WEATHER AND/OR OBSTRUCTIONS TO VISIBILITY.

AZZ001>003-036-290800-
NORTHWEST ARIZONA

CITY           SKY/WX    TMP DP  RH WIND       PRES   REMARKS
BULLHEAD CITY  CLOUDY    64  46  52 N17       30.14S
KINGMAN        CLOUDY    49  42  77 E8        30.20F
$$

AZZ004>008-015-016-018-290800-
NORTH CENTRAL ARIZONA

CITY           SKY/WX    TMP DP  RH WIND       PRES   REMARKS
GRAND CANYON   CLOUDY    36  31  82 CALM      30.29S
PRESCOTT       CLOUDY    44  34  67 CALM      30.24R
FLAGSTAFF      CLOUDY    34  28  79 CALM      30.29S
PAYSON         CLOUDY    48  34  57 CALM      30.23S
$$

AZZ009>014-017-290800-
NORTHEAST ARIZONA

CITY           SKY/WX    TMP DP  RH WIND       PRES   REMARKS
WINSLOW        CLOUDY    41  34  76 SW5       30.26S
SAINT JOHNS    CLOUDY    41  31  67 S5        30.26S
WINDOW ROCK    CLOUDY    36  28  73 CALM      30.31R
SHOW LOW       CLOUDY    36  28  75 W3        30.30S
$$

AZZ023-290800-
GREATER PHOENIX AREA

CITY           SKY/WX    TMP DP  RH WIND       PRES   REMARKS
PHOENIX        CLOUDY    64  51  62 CALM      30.07S
BUCKEYE          N/A     59  59 100 NW6       30.10S
LUKE AFB       NOT AVBL
DEER VALLEY    CLOUDY    58  47  66 CALM      30.09R
SCOTTSDALE     CLOUDY    60  48  64 CALM      30.10R
MESA-GATEWAY   CLOUDY    57  52  82 CALM      30.11S
$$

AZZ027-028-290800-
SOUTHWEST MARICOPA COUNTY AND PINAL COUNTY

CITY           SKY/WX    TMP DP  RH WIND       PRES   REMARKS
CASA GRANDE    CLOUDY    59  48  67 CALM      30.11R
GILA BEND      PTSUNNY   60  56  89 S5        30.09S
$$

AZZ503-504-507>509-290800-
SOUTHEAST ARIZONA

CITY           SKY/WX    TMP DP  RH WIND       PRES   REMARKS
TUCSON         MOCLDY    59  50  72 CALM      30.15S
DAVIS-MONTHAN  MOCLDY    55  50  81 S6        30.13S
NOGALES        MOCLDY    53  41  63 S3        30.16S
SIERRA VISTA   MOCLDY    52  37  58 CALM      30.19R
DOUGLAS        PTCLDY    44  28  53 NE8       30.17R
SAFFORD        CLOUDY    53  37  54 SE3       30.12F
$$

AZZ020-021-025-026-031-290800-
SOUTHWEST ARIZONA

CITY           SKY/WX    TMP DP  RH WIND       PRES   REMARKS
YUMA           CLOUDY    63  50  62 N5        30.08F
$$

CAZ031-033-041-043-047-048-061-290800-
SOUTHERN CALIFORNIA

CITY           SKY/WX    TMP DP  RH WIND       PRES   REMARKS
DOWNTOWN L.A.  CLOUDY    65  48  54 CALM      30.07F
L.A. AIRPORT   CLOUDY    66  48  52 VRB6      30.07F
SAN DIEGO      CLOUDY    63  54  72 NW3       30.09S
BURBANK        CLOUDY    62  44  51 CALM      30.08F
ONTARIO        CLOUDY    60  47  61 NW6       30.09F
RIVERSIDE      CLOUDY    64  44  48 E7        30.10F
PALM SPRINGS   CLOUDY    64  49  57 CALM      30.13S
EL CENTRO NAS  CLOUDY    61  51  70 SW6       30.10S
IMPERIAL       CLOUDY    60  52  74 SW5       30.10S
BLYTHE         CLOUDY    61  52  72 NW5       30.11F
NEEDLES        CLOUDY    61  50  67 W5        30.13F
$$

NVZ020-UTZ003-290800-
SOUTHERN NEVADA-UTAH

CITY           SKY/WX    TMP DP  RH WIND       PRES   REMARKS
LAS VEGAS      CLOUDY    57  46  66 S8        30.16S
SALT LAKE CITY PTCLDY    35  33  92 CALM      30.37R
$$

NMZ009-TXZ055-290800-
NEW MEXICO-WEST TEXAS

CITY           SKY/WX    TMP DP  RH WIND       PRES   REMARKS
ALBUQUERQUE    MOCLDY    45  30  55 NE6       30.26S
EL PASO        PTCLDY    48  36  63 E5        30.16S
$$


........................KEY........................
SKY/WX - SKY CONDITION/WEATHER
TMP    - TEMPERATURE IN FAHRENHEIT
DP     - DEW POINT IN FAHRENHEIT
RH     - RELATIVE HUMIDITY IN PERCENT
WIND   - DIRECTION AND SPEED IN MILES PER HOUR (MPH)
VRB    - VARIABLE WIND DIRECTION
PRES   - MEAN SEA LEVEL PRESSURE IN INCHES OF MERCURY
         F - FALLING PRESSURE   R - RISING PRESSURE
         S - STEADY PRESSURE
VSB    - VISIBILITY IN MILES
HX     - HEAT INDEX IN FAHRENHEIT
WCI    - WIND CHILL INDEX IN FAHRENHEIT
TC     - TEMPERATURE IN CELSIUS WHICH IS ALSO KNOWN AS
         TEMPERATURE IN CENTIGRADE
AFB    - AIR FORCE BASE
         LUKE AFB IS LUKE AIR FORCE BASE
         DAVIS-MONTHAN IS DAVIS-MONTHAN AIR FORCE BASE
NAS    - NAVAL AIR STATION
         EL CENTRO NAS IS EL CENTRO NAVAL AIR STATION
N/A    - NOT AVAILABLE



USA.gov is the U.S. government's official web portal to all federal, state and local government web resources and services.